Temp
-3 -3 -4 -4 -4 -5 -5 -5 -5 -5 -5 -5 -4 -4 -4 -4 -4 -4 -4 -4 -5 -5
-4 -4 -4 -4 -5 -5 -5 -5 -5 -6 -5 -5 -5 -5 -5 -5 -5 -5 -5 -5 -5 -6
-4 -5 -5 -5 -6 -6 -6 -6 -6 -6 -6 -6 -6 -6 -6 -7 -7 -6 -7 -7 -7 -7
-6 -6 -6 -6 -6 -6 -7 -7 -7 -7 -7 -7 -7 -8 -8 -8 -8 -8 -8 -8 -7 -7
-7 -7 -7 -7 -8 -7 -7 -7 -8 -8 -8 -8 -8 -8 -8 -8 -9 -9 -9 -8 -8 -8
-8 -8 -8 -9 -9 -9 -9 -9 -9 -9 -9 -9 -9 -9 -9 -9 -9 -9 -9 -9 -9 -9
-9 -9 -9 -10 -10 -10 -10 -10 -10 -10 -10 -10 -10 -10 -10 -10 -10 -10 -10 -10 -10 -10
-10 -10 -11 -11 -12 -11 -11 -11 -11 -11 -11 -11 -11 -11 -12 -12 -12 -12 -12 -12 -13 -13
-12 -12 -12 -12 -12 -12 -12 -12 -12 -12 -12 -12 -12 -12 -13 -13 -13 -14 -15 -15 -14 -14
-13 -13 -13 -13 -14 -14 -14 -14 -14 -14 -14 -13 -13 -13 -14 -14 -15 -16 -15 -15 -15 -15
-14 -14 -14 -14 -15 -15 -15 -15 -15 -15 -15 -15 -14 -15 -15 -15 -17 -17 -16 -16 -16 -16
-15 -15 -15 -15 -16 -16 -16 -16 -16 -16 -16 -16 -16 -16 -16 -18 -18 -17 -17 -17 -17 -18
-17 -17 -17 -17 -17 -17 -17 -17 -17 -17 -17 -17 -17 -17 -17 -19 -19 -19 -18 -18 -18 -18
-18 -18 -18 -18 -18 -18 -18 -18 -18 -18 -18 -18 -17 -17 -18 -19 -18 -18 -18 -18 -18 -18
Height
1546 1548 1549 1551 1552 1552 1552 1552 1553 1552 1552 1551 1551 1551 1551 1550 1549 1548 1546 1545 1544 1543
1543 1543 1545 1546 1548 1548 1549 1549 1549 1549 1549 1549 1548 1548 1548 1548 1547 1546 1544 1543 1542 1541
1541 1540 1541 1542 1543 1544 1544 1544 1545 1545 1545 1546 1545 1544 1544 1544 1543 1542 1541 1540 1539 1538
1541 1539 1538 1538 1539 1539 1540 1540 1540 1541 1541 1541 1541 1540 1540 1539 1538 1538 1537 1536 1534 1533
1537 1537 1536 1536 1536 1536 1535 1535 1535 1535 1535 1534 1534 1534 1534 1533 1532 1532 1531 1530 1528 1527
1533 1533 1532 1532 1533 1532 1532 1531 1530 1530 1529 1528 1527 1527 1527 1526 1525 1525 1524 1523 1521 1520
1528 1528 1527 1527 1526 1526 1526 1525 1524 1523 1523 1522 1521 1521 1520 1518 1517 1516 1516 1515 1513 1512
1522 1522 1522 1521 1521 1520 1520 1519 1518 1517 1516 1516 1515 1514 1513 1512 1510 1508 1507 1506 1505 1504
1516 1516 1516 1515 1515 1514 1513 1513 1511 1510 1509 1508 1507 1507 1506 1504 1502 1500 1499 1498 1497 1496
1512 1511 1511 1510 1509 1508 1507 1506 1505 1504 1502 1501 1500 1500 1499 1497 1495 1492 1490 1489 1487 1485
1509 1507 1506 1505 1504 1502 1501 1499 1498 1497 1495 1493 1493 1492 1491 1489 1487 1484 1482 1481 1479 1476
1505 1503 1501 1500 1498 1497 1495 1493 1491 1489 1488 1487 1486 1485 1483 1482 1479 1476 1473 1472 1470 1468
1500 1498 1496 1494 1492 1491 1489 1487 1485 1483 1482 1480 1478 1478 1477 1475 1472 1469 1467 1464 1462 1461
1495 1493 1491 1489 1487 1485 1483 1481 1479 1477 1476 1474 1473 1471 1469 1469 1467 1464 1460 1456 1453 1451
Wind_Speed
15 14 13 13 13 12 12 12 11 10 10 9 9 9 9 9 9 9 9 10 10 11
16 16 15 15 14 14 14 13 14 14 14 13 12 12 12 11 11 11 11 11 12 12
18 18 17 16 16 16 15 15 16 17 17 17 16 16 15 14 15 15 14 14 14 15
20 19 18 18 18 17 18 18 18 19 20 20 19 19 18 18 18 19 19 19 19 19
21 21 20 19 19 20 21 20 21 22 22 22 22 22 22 23 23 24 24 24 24 24
22 21 21 22 22 22 23 23 23 24 24 24 24 25 25 27 28 28 28 29 29 29
23 23 23 23 23 25 25 25 26 26 26 26 27 27 27 28 29 30 30 30 30 30
25 25 27 28 27 28 28 28 28 28 28 28 28 27 27 28 30 30 31 30 29 29
22 23 24 25 24 25 25 26 27 27 29 29 29 28 28 28 30 30 29 30 29 28
13 15 17 18 20 21 22 23 24 25 27 28 29 28 28 29 28 29 31 32 31 30
15 16 17 19 20 21 23 24 25 26 27 29 28 27 27 27 27 29 31 31 32 32
19 20 20 21 22 23 24 25 25 26 26 27 26 24 23 22 26 29 30 30 29 28
20 21 21 21 22 22 23 23 23 24 24 24 26 23 22 22 24 27 29 30 30 29
21 21 21 21 21 21 22 22 22 24 24 26 26 26 25 23 25 29 33 34 35 35
Wind_Direction
238 243 248 257 262 262 264 271 273 270 272 269 272 279 288 295 303 310 316 322 328 333
241 244 250 254 258 261 265 268 270 273 274 277 276 277 279 283 288 293 299 304 308 315
246 247 250 253 256 260 265 269 272 273 274 275 275 276 278 281 285 287 290 293 296 302
259 257 257 258 261 266 269 270 272 273 272 272 274 276 278 280 283 284 286 288 290 293
259 262 264 265 266 266 265 268 272 273 273 275 276 278 280 281 282 283 284 286 287 289
263 266 267 268 270 271 275 278 278 279 280 280 281 280 281 282 284 284 285 286 287 288
262 264 265 269 273 277 277 277 279 280 282 283 283 283 284 284 284 285 285 285 285 286
262 264 268 269 268 271 275 277 279 280 281 281 282 283 285 285 286 287 287 286 285 284
267 268 269 271 272 272 274 275 277 281 282 282 284 286 287 287 288 288 286 287 285 280
287 283 280 278 277 277 277 278 280 281 283 284 284 285 285 284 284 283 282 283 285 285
294 291 287 284 284 284 283 284 284 284 285 285 286 287 287 287 286 284 283 285 285 284
296 292 290 289 288 288 288 289 290 291 291 291 291 291 292 292 288 290 291 292 290 290
298 296 295 294 294 294 295 295 295 295 295 296 297 298 296 293 294 296 297 296 293 289
301 300 300 300 300 300 299 298 299 299 300 299 301 301 299 292 291 294 298 300 300 296